Location: *
(45.9500°N, 9.0833°E)
Time: 14:51:16
(UTC+00:00)

Cosmos 1844 Rocket - Pass Details

Date: 03 March 2021
Orbit: 826 x 843 km, 71.0° (Epoch: 20 April)

Event Time Altitude Azimuth Distance (km) Brightness Sun altitude
Rises 18:22:35 0° 335° (NNW) 3,375 6.3 -12.9°
Reaches altitude 10° 18:25:02 10° 338° (NNW) 2,437 5.5 -13.3°
Maximum altitude 18:30:36 68° 61° (ENE) 891 2.6 -14.2°
Drops below altitude 10° 18:36:08 10° 145° (SE) 2,424 4.7 -15.2°
Enters shadow 18:36:18 - 145° (SE) 2,484 4.8 -15.2°
